Lapse_Rate
6.1 6.5 6.5 6.5 6.5 6.5 6.5 6.5 6.5 6.5 6.5 6.5 6.5 6.5 6.5 6.1 6.4 6.5 6.3 6.1 5.1 4.4 4.5 3.6 3.4 2.3 2.3 2.2 3.2 3.9 3.4 3.1 3.1 2.6 2.4 2.1 0.5 -0.2 -0.6 1.1 1.7 1.8 1.6 1.5
6.5 6.5 6.5 6.5 6.5 6.5 6.5 6.5 6.5 6.5 6.5 6.5 6.5 6.5 6.5 6.5 6.3 6.5 6.6 6.4 5.7 5.4 4.4 3.4 3.2 2.9 3.2 3.2 3.6 3.9 3.9 3.2 3.4 3.3 1.6 0.6 1.3 -0.4 -0.7 0.7 1.3 1.8 1.7 1.5
6.5 6.5 6.5 6.5 6.5 6.5 6.5 6.5 6.5 6.5 6.5 6.5 6.5 6.5 6.5 6.5 6.4 6.3 6.6 6.8 6.5 5.3 4.4 4.2 3.6 3.6 3.8 3.8 3.4 4.0 3.7 3.5 3.2 2.0 1.2 0.5 0.5 0.1 0.0 -0.3 -0.7 0.7 1.8 1.6
6.5 6.5 6.5 6.5 6.5 6.5 6.5 6.5 6.5 6.5 6.5 6.5 6.5 6.5 6.5 6.5 6.5 6.5 6.5 6.6 6.5 5.9 5.1 4.4 4.1 4.1 4.0 4.1 3.5 4.2 3.7 3.3 2.4 2.5 2.2 2.2 2.3 1.8 -0.2 -0.7 -1.0 -0.1 1.6 1.4
6.5 6.5 6.5 6.5 6.5 6.5 6.5 6.5 6.5 6.5 6.5 6.5 6.5 6.5 6.5 6.5 6.5 6.5 6.5 6.5 6.4 6.5 5.8 6.0 4.5 4.1 4.3 3.9 3.2 3.8 3.7 3.3 2.5 2.8 2.8 2.0 1.9 0.2 -0.9 -0.9 -0.7 -0.6 0.3 1.7
6.5 5.9 6.5 6.5 6.5 6.5 6.5 6.5 6.5 6.5 6.5 6.5 6.5 6.5 6.5 6.5 6.5 6.5 6.5 6.5 6.6 6.6 6.3 5.8 5.8 4.5 4.3 3.9 3.3 3.7 3.8 3.5 2.8 2.7 2.5 2.4 1.6 0.9 0.3 -0.9 -0.4 -0.9 -0.8 0.1
6.5 6.5 6.5 6.4 6.5 6.5 6.5 6.5 6.5 6.5 6.5 6.5 6.5 6.5 6.5 6.5 6.5 6.5 6.5 6.4 6.6 6.3 6.2 6.1 5.9 5.6 4.6 3.3 3.3 3.7 4.1 3.1 3.0 2.6 2.6 2.4 1.9 2.0 1.0 0.2 -0.1 -0.7 -0.9 -0.3
6.5 6.5 6.5 6.5 6.5 6.5 6.5 6.5 6.5 6.5 6.5 6.5 6.5 6.5 6.5 6.5 6.4 5.0 6.3 6.6 6.7 5.2 6.4 5.5 5.4 5.7 4.7 3.5 3.6 4.8 4.5 3.1 2.9 2.8 2.5 2.4 2.1 1.9 1.4 0.3 -0.1 -0.8 -0.1 -0.0
6.5 6.5 6.5 6.5 6.5 6.5 6.5 6.5 6.5 6.5 6.5 6.5 6.5 6.5 6.5 6.5 6.5 6.5 6.1 6.1 6.2 6.2 6.1 4.6 4.4 4.2 3.9 3.6 3.7 4.9 4.2 3.2 2.9 2.9 2.1 1.6 1.5 1.4 1.0 -0.1 -0.1 -0.3 -0.1 0.9
6.5 6.5 6.5 6.5 6.4 6.5 6.5 6.5 6.5 6.5 6.5 6.5 6.5 6.5 6.5 6.5 6.5 6.5 6.5 6.4 6.2 6.0 6.5 5.9 3.7 4.2 4.1 3.9 3.4 4.0 3.7 2.8 2.4 1.9 2.1 1.6 1.2 1.1 0.7 0.2 -0.2 -0.0 0.1 1.1
6.5 6.5 6.5 6.5 6.5 6.5 6.5 6.5 6.5 6.5 6.5 6.5 6.5 6.5 6.5 6.5 6.5 6.5 6.5 6.1 6.2 6.4 6.6 6.8 6.8 6.8 5.2 3.2 2.4 2.6 2.4 2.0 1.7 1.7 1.3 0.8 0.7 0.8 0.5 0.5 -0.2 0.1 0.6 0.9
6.5 6.5 6.5 6.5 6.5 6.5 6.5 6.5 6.5 6.5 6.5 6.5 6.5 6.5 6.5 6.5 6.5 6.5 6.5 4.9 5.3 6.3 6.4 6.5 6.4 7.0 5.2 2.5 1.7 2.1 2.0 2.3 1.6 1.2 1.2 1.2 0.9 0.9 0.7 0.3 0.2 0.6 0.3 0.9
6.5 6.5 6.5 6.5 6.5 6.5 6.5 6.5 6.5 6.5 6.5 6.5 6.5 6.5 6.5 6.5 6.5 6.3 6.4 4.8 5.3 6.0 6.3 6.9 7.0 6.8 3.9 2.8 2.0 2.0 2.2 1.5 1.2 1.4 1.2 1.1 0.8 0.7 0.4 0.2 0.2 0.4 0.1 -0.1
6.8 6.5 6.5 6.5 6.5 6.5 6.5 6.5 6.5 6.5 6.5 6.5 6.5 6.5 6.5 6.5 6.5 6.5 6.0 6.0 6.5 6.6 6.8 6.9 6.7 6.1 4.8 3.3 1.8 1.9 1.5 1.5 1.4 1.4 1.4 0.9 0.9 0.7 0.5 0.2 0.2 0.1 0.1 -0.2
6.5 6.5 6.5 6.5 6.5 6.5 6.5 6.5 6.5 6.5 6.5 6.5 6.5 6.5 6.5 6.5 6.5 6.5 6.1 6.5 6.4 6.6 6.8 6.9 6.7 6.4 5.0 3.5 2.5 1.7 1.5 1.6 1.6 1.6 1.5 1.1 0.8 0.7 0.3 0.1 -0.1 -0.3 -0.3 -0.3
6.5 6.5 6.5 6.5 6.5 6.5 6.5 6.5 6.5 6.5 6.5 6.5 6.5 6.5 6.5 6.5 5.3 6.1 6.1 6.4 6.6 6.8 6.9 6.8 6.8 6.1 4.7 3.3 2.1 1.9 1.6 1.8 2.2 2.1 1.5 1.3 1.1 0.9 0.3 -0.2 -0.4 -0.5 -0.5 -0.4
6.5 6.5 6.5 6.5 6.5 6.5 6.5 6.5 6.5 6.5 6.5 6.5 6.5 6.5 6.5 6.5 6.5 6.5 6.3 6.6 6.7 6.9 6.9 6.8 6.0 5.3 4.4 2.8 1.9 1.7 2.0 2.4 2.5 1.9 1.7 1.6 1.3 0.7 0.1 -0.3 -0.2 -0.3 -0.5 -0.2
6.5 6.5 6.5 6.5 6.5 6.5 6.5 6.5 6.5 6.5 6.5 6.5 6.5 6.5 6.5 6.5 5.8 5.4 6.0 6.3 6.7 6.5 6.4 6.1 5.8 4.9 3.9 2.5 1.7 1.4 2.1 2.2 2.2 2.0 1.7 1.4 1.0 0.3 -0.2 -0.3 -0.4 -0.4 -0.0 0.5
6.5 6.5 6.5 6.5 6.5 6.5 6.5 6.5 6.5 6.5 6.5 6.5 6.5 6.5 6.5 5.3 5.2 6.2 5.9 6.5 6.0 6.0 5.9 5.2 4.4 3.3 2.7 1.7 2.1 2.0 2.4 2.4 2.3 1.8 1.3 1.0 0.8 0.2 -0.2 -0.2 -0.1 0.2 0.5 0.8
6.5 6.5 6.5 6.5 6.5 6.5 6.5 6.5 6.4 6.5 6.5 6.5 6.5 6.5 6.5 6.2 6.5 6.5 5.6 5.6 6.1 5.4 4.5 3.6 3.5 2.6 1.9 2.5 2.7 2.4 2.5 2.5 2.0 1.7 1.0 0.7 0.5 0.2 0.1 0.2 0.5 0.7 0.7 1.5
6.5 6.5 6.5 6.5 6.5 6.5 6.5 6.5 5.9 6.5 6.5 6.5 6.2 5.9 6.3 6.5 5.3 4.6 5.5 5.6 4.3 3.9 3.9 4.0 3.6 2.6 2.4 3.1 3.0 2.2 2.4 1.8 1.3 1.1 0.7 0.5 0.4 0.3 0.4 0.3 0.6 0.6 1.0 1.6
6.5 6.5 6.5 6.5 6.5 6.5 6.4 6.3 6.5 6.5 5.6 5.8 4.9 4.9 5.7 4.5 5.6 5.8 5.0 4.6 4.1 4.0 5.1 3.2 2.6 2.5 2.7 2.7 2.6 2.4 1.7 1.2 1.0 0.9 0.7 0.3 0.3 1.8 1.4 0.8 1.1 1.8 1.6 1.8
6.5 6.5 6.5 6.5 6.5 6.5 6.0 6.3 4.2 4.9 6.2 5.2 5.5 3.6 4.2 6.4 6.7 5.8 5.6 5.2 4.5 4.2 4.5 3.6 2.1 2.4 2.9 3.0 2.1 1.6 1.2 1.7 1.2 0.7 0.4 0.1 0.3 0.5 1.5 2.4 2.5 2.0 1.6 2.1
6.5 6.5 6.5 6.5 6.5 6.5 6.1 5.3 4.7 5.0 5.4 5.2 4.9 5.0 4.3 6.6 6.8 6.6 6.4 5.8 5.2 4.9 3.8 3.1 2.9 2.4 2.3 2.4 2.1 1.0 1.4 1.2 0.9 0.3 0.1 0.3 0.6 0.7 1.4 1.9 2.8 2.1 2.8 3.6
6.5 6.5 6.5 6.5 6.5 6.5 5.8 5.3 5.9 5.6 6.0 6.3 6.7 6.7 6.9 6.3 7.0 6.8 6.7 6.4 5.9 4.9 3.8 3.4 3.2 3.0 2.8 2.5 1.8 1.4 1.0 1.1 0.8 0.9 1.1 1.1 1.4 1.6 1.6 2.2 3.0 4.1 4.1 4.8
6.6 6.5 6.5 6.5 6.4 6.4 6.2 6.1 6.0 6.0 6.5 6.7 6.7 6.9 7.2 7.2 6.8 6.5 6.9 6.3 4.5 3.4 3.3 3.0 2.8 2.3 2.4 1.8 1.3 1.3 1.5 1.7 1.7 1.6 1.9 1.7 1.8 2.2 2.9 3.4 4.1 6.5 7.0 7.5
Wind_Speed
6 8 15 15 16 10 9 9 14 6 9 14 19 19 21 7 17 23 17 14 14 16 14 11 11 10 10 9 13 14 13 12 12 8 7 5 5 4 3 11 17 18 19 18
5 19 17 8 8 13 13 6 10 5 5 12 12 20 21 19 9 23 25 15 16 13 11 12 13 13 14 14 13 13 15 15 12 10 4 4 5 3 4 10 13 17 17 17
21 5 13 11 11 14 21 16 7 6 3 7 4 17 15 19 21 13 22 23 17 17 17 17 18 16 15 16 15 14 15 16 12 11 8 5 7 6 3 3 3 7 15 15
15 19 6 17 19 16 20 16 18 15 7 7 10 7 15 19 19 22 19 20 23 22 22 21 21 20 18 16 14 15 15 15 11 15 12 16 7 6 3 3 3 8 15 15
9 11 19 18 15 16 14 7 13 17 11 3 5 6 9 10 20 24 28 27 24 23 22 22 24 23 20 17 16 15 17 16 15 13 15 10 10 4 4 4 7 6 9 13
11 7 10 9 14 16 3 10 6 11 11 11 15 11 8 8 24 25 22 24 25 21 20 19 18 20 19 15 14 14 16 15 16 14 13 14 13 11 8 5 6 4 4 7
5 11 3 6 8 10 11 6 6 10 8 9 15 9 18 10 16 23 25 23 23 18 19 19 20 19 19 19 17 15 17 16 16 16 14 12 13 14 14 11 7 7 4 3
12 9 17 12 18 8 19 17 6 6 6 6 7 8 21 17 17 8 15 20 24 20 20 22 22 19 19 20 19 19 17 15 15 15 13 10 12 9 8 8 7 5 4 4
7 8 7 11 9 18 8 16 15 4 3 2 5 7 11 7 10 20 12 16 22 22 25 25 23 22 20 21 21 19 17 16 15 14 11 10 9 10 9 8 6 4 5 6
5 4 6 5 8 12 8 10 9 7 5 4 5 3 14 9 15 15 16 21 20 22 23 23 24 25 22 20 17 16 16 16 13 13 12 10 9 8 9 8 8 7 6 8
17 3 3 6 7 18 7 7 6 3 3 3 1 6 6 15 12 13 17 18 20 24 24 22 20 20 21 20 17 15 15 14 13 12 11 11 9 9 9 8 7 7 8 9
10 4 9 13 3 4 17 14 6 6 5 4 3 6 3 4 6 6 8 7 8 21 22 21 22 21 20 20 18 17 14 14 13 12 13 12 11 11 10 8 7 9 7 8
7 4 3 1 2 3 7 10 14 5 1 7 3 5 3 5 7 4 3 8 11 14 17 19 19 19 19 19 18 17 15 13 13 14 14 12 11 10 9 8 7 7 7 6
6 4 4 6 4 7 6 17 13 12 4 4 14 12 20 5 5 4 5 7 15 14 17 16 16 16 17 17 18 17 14 15 14 14 14 13 10 10 9 8 7 7 7 6
7 5 5 10 16 6 5 14 19 16 18 9 14 15 23 2 4 7 6 7 17 16 16 15 16 15 16 17 16 15 15 15 15 14 13 11 10 9 8 8 7 6 6 5
4 5 10 8 14 18 9 9 16 20 20 18 15 18 5 4 6 7 10 11 10 16 17 18 17 16 18 18 18 16 16 14 14 14 12 11 10 9 8 7 7 6 6 5
4 3 5 6 8 7 13 22 9 15 18 18 20 24 5 4 6 10 11 12 13 13 14 16 17 17 16 18 18 17 15 15 14 14 12 10 10 9 7 7 7 6 5 4
10 7 4 7 8 7 6 11 21 17 17 17 16 6 9 12 4 8 13 16 15 16 16 16 15 15 15 16 17 17 15 14 14 13 11 9 9 8 7 7 6 5 3 3
20 11 4 4 5 9 7 4 11 13 25 14 16 15 5 6 5 3 7 12 15 18 16 15 14 17 17 17 17 18 15 14 13 11 10 9 8 8 7 6 6 4 3 2
15 16 8 6 5 6 6 4 3 6 14 8 17 16 9 10 5 4 11 15 16 17 16 17 17 18 18 16 17 18 14 14 12 10 9 8 7 7 6 6 5 3 2 2
6 8 17 12 9 6 8 6 6 7 5 3 4 10 15 11 5 13 17 17 18 19 20 17 18 18 18 17 18 16 13 12 10 10 9 8 7 7 6 5 3 3 3 2
5 8 7 8 11 14 3 3 3 3 6 5 5 6 9 12 18 20 19 19 20 20 18 19 18 16 15 16 18 15 13 10 10 9 9 7 6 5 4 6 4 4 3 3
4 6 3 11 7 2 2 1 6 5 6 5 1 8 18 20 18 21 19 20 19 20 17 16 20 17 13 14 16 16 9 11 10 9 8 7 6 5 5 5 4 3 4 3
5 4 4 3 0 2 3 4 5 5 2 4 11 16 20 22 19 20 18 18 18 17 18 18 20 18 14 13 13 13 11 10 10 9 7 6 6 5 4 3 3 3 2 0
6 8 5 4 2 1 10 5 2 7 9 15 15 16 20 25 20 20 19 18 18 19 18 18 18 16 15 14 12 10 10 10 9 8 6 5 4 4 4 3 3 2 2 3
3 4 3 3 3 5 3 3 6 13 14 15 20 19 17 19 24 22 18 17 18 19 18 17 17 16 13 12 11 9 8 8 8 7 5 4 4 3 3 3 2 4 4 4
Wind_Direction
193 209 212 219 211 243 268 213 225 223 213 191 220 215 239 205 214 214 212 209 205 201 201 180 180 163 155 157 158 162 151 150 142 140 138 132 128 119 99 123 132 128 127 125
190 225 222 212 235 228 228 237 252 295 248 205 218 233 231 231 223 213 211 200 209 209 176 173 180 175 175 169 165 163 159 153 155 150 138 136 138 104 108 125 124 130 128 123
213 227 203 204 213 222 237 234 241 248 321 230 192 242 232 230 226 220 215 211 202 193 193 186 178 186 179 176 171 168 161 158 153 139 118 98 91 85 85 86 103 123 128 120
226 222 184 206 220 204 237 228 240 242 267 242 175 255 222 221 224 230 226 225 212 201 198 190 182 183 184 183 170 167 162 156 149 151 144 151 150 152 162 143 136 128 128 121
201 185 211 224 214 209 240 188 212 228 230 241 226 239 252 187 215 221 223 224 215 206 199 193 188 182 184 173 172 168 164 159 155 157 155 152 149 136 127 121 127 122 118 124
220 191 194 203 214 201 172 245 271 233 226 235 217 199 246 199 208 217 223 214 212 210 199 195 197 179 179 169 164 167 167 162 158 156 158 155 151 144 140 138 138 135 121 118
197 225 213 176 211 194 193 178 232 214 206 227 193 188 243 229 211 211 211 205 200 197 188 184 182 180 178 169 168 166 168 165 163 158 160 157 154 155 156 157 154 147 136 126
214 239 206 201 208 182 199 203 216 236 188 194 136 210 232 239 250 251 223 205 193 179 183 181 178 179 179 174 172 173 172 162 163 159 156 155 154 156 157 154 150 142 141 139
186 235 249 207 185 185 178 210 203 268 300 118 195 272 291 228 232 221 217 208 202 191 186 180 178 178 177 176 173 174 170 164 162 157 146 147 147 149 152 140 129 132 130 133
223 266 226 227 173 197 175 171 190 225 211 206 243 237 237 193 213 212 210 211 201 189 190 186 180 177 174 174 164 165 164 161 154 147 147 147 143 138 135 132 132 133 129 124
221 220 258 119 186 192 174 195 210 173 185 203 264 257 219 227 230 218 212 202 198 186 186 183 178 177 165 160 155 154 148 143 143 141 134 134 134 131 128 127 125 126 120 123
218 221 224 230 235 209 211 204 190 202 189 186 176 275 269 276 288 254 206 175 190 180 174 169 164 166 158 155 151 151 147 145 143 136 133 133 131 130 125 123 123 122 116 112
352 255 204 209 245 192 195 210 196 151 334 191 209 259 13 26 27 24 164 131 137 146 151 154 158 161 154 151 146 144 143 139 135 133 131 130 131 128 123 122 119 115 117 112
260 261 268 234 262 146 201 212 202 201 209 172 226 250 271 37 28 55 103 134 136 142 150 150 151 152 151 146 140 138 134 136 134 131 131 131 132 127 124 120 115 114 115 109
11 289 283 270 271 256 214 199 205 205 222 203 258 240 264 196 177 170 146 152 138 142 147 151 150 149 143 138 133 129 130 133 132 128 128 127 122 119 117 113 111 109 100 100
40 301 326 290 253 249 240 223 203 211 221 242 257 269 335 19 99 148 155 153 163 148 149 148 145 145 140 138 132 131 130 130 129 126 123 124 121 119 114 112 110 105 103 99
287 263 317 282 332 224 246 228 210 220 225 219 234 248 181 244 188 167 165 156 152 148 148 142 143 144 143 137 133 132 130 126 123 121 123 123 121 117 115 113 108 109 106 104
231 236 258 286 328 225 261 189 217 221 232 226 247 267 206 244 132 153 172 157 150 143 142 141 139 133 131 127 121 121 121 120 120 120 120 120 119 117 115 110 111 115 116 108
208 205 261 269 272 300 313 225 187 196 239 220 220 236 183 116 80 50 160 155 148 143 139 135 132 127 122 120 121 116 115 116 117 120 120 121 122 118 114 116 124 122 116 102
198 205 215 199 242 251 241 232 114 103 254 212 203 220 159 143 181 181 136 130 130 127 131 130 125 121 117 120 120 115 118 117 119 122 120 118 117 114 118 126 128 124 113 94
157 191 218 217 239 285 266 322 324 128 240 17 208 203 166 195 199 138 134 128 126 128 125 122 123 121 119 121 117 113 116 113 117 113 111 104 105 114 124 121 107 106 99 77
185 180 193 228 217 244 18 360 186 318 316 313 298 189 154 113 121 125 124 122 119 120 120 119 114 109 110 117 114 114 109 115 110 107 104 100 99 102 109 108 103 102 99 72
267 226 255 194 200 216 128 187 290 297 271 293 327 113 124 122 123 123 125 123 121 121 120 119 111 103 101 108 114 112 117 115 110 100 99 96 90 84 94 111 111 90 74 67
266 25 272 229 159 336 31 30 351 332 12 69 112 122 122 121 122 117 114 116 115 115 115 114 109 106 101 99 100 109 113 109 105 105 102 103 106 98 83 74 79 91 91 287
296 320 316 299 289 158 41 40 12 62 76 89 91 107 119 118 113 116 116 116 117 114 110 106 105 103 102 102 101 105 106 107 106 104 105 104 92 96 85 81 102 122 229 213
332 281 273 297 330 59 50 33 89 92 91 95 103 99 95 107 115 113 110 112 108 105 105 101 102 103 102 100 99 96 99 105 110 111 113 113 98 101 105 104 44 37 42 33